パンスターズ彗星

P/2019 A4 ( PanSTARRS ) 2023

English version
Home page
Updated on July 16, 2022

---------------------------------------------------------------------

・ プロフィール

・ 軌道要素

Epoch 2022 Aug. 9.0 TT = JDT 2459800.5
T 2023 Mar. 2.84849 TT                                  Rudenko
q   2.3860068            (2000.0)            P               Q
n   0.23324485     Peri.  342.88563     -0.21705015     -0.95528139
a   2.6137338      Node   119.24593     +0.92039250     -0.26881042
e   0.0871271      Incl.   13.30605     +0.32521819     +0.12320075
P   4.23
From 75 observations 2018 Dec. 9-2019 Mar. 2, mean residual 0".5.

・ 光度変化

        m1 = 15.0 + 5 logΔ + 10.0 log r

---------------------------------------------------------------------

軌道要素はM.P.E.C. 2022-L66に掲載されたものです。
光度グラフはComet for Windowsで作成したものです。

---------------------------------------------------------------------

Copyright(C) Seiichi Yoshida (comet@aerith.net). All rights reserved.